﻿"﻿最低氣溫 (攝氏度) - ���W"
"Minimum Temperature (°C) - Tsuen Wan"
年/Year,月/Month,日/Day,數值/Value,"數據完整性/data Completeness"
2024,1,1,17.3,C
2024,1,2,15.0,C
2024,1,3,12.2,C
2024,1,4,11.9,C
2024,1,5,13.2,C
2024,1,6,14.8,C
2024,1,7,14.9,C
2024,1,8,16.0,C
2024,1,9,16.0,C
2024,1,10,15.2,#
2024,1,11,14.3,C
2024,1,12,13.4,C
2024,1,13,14.2,C
2024,1,14,16.6,C
2024,1,15,15.3,C
2024,1,16,15.3,C
2024,1,17,14.1,C
2024,1,18,16.9,C
2024,1,19,16.2,C
2024,1,20,15.7,C
2024,1,21,13.1,C
2024,1,22,6.9,C
2024,1,23,3.5,C
2024,1,24,3.0,C
2024,1,25,6.4,C
2024,1,26,9.9,C
2024,1,27,10.8,#
2024,1,28,9.3,C
2024,1,29,11.5,C
2024,1,30,15.6,C
2024,1,31,17.0,C
2024,2,1,19.2,C
2024,2,2,18.4,C
2024,2,3,17.6,C
2024,2,4,18.6,C
2024,2,5,18.4,C
2024,2,6,16.9,C
2024,2,7,11.0,C
2024,2,8,8.4,C
2024,2,9,7.7,C
2024,2,10,9.1,C
2024,2,11,10.1,C
2024,2,12,12.1,C
2024,2,13,14.2,C
2024,2,14,15.7,C
2024,2,15,17.1,C
2024,2,16,17.7,C
2024,2,17,16.9,C
2024,2,18,19.2,C
2024,2,19,20.0,C
2024,2,20,21.2,C
2024,2,21,21.3,C
2024,2,22,20.5,C
2024,2,23,16.8,#
2024,2,24,14.2,#
2024,2,25,12.2,#
2024,2,26,13.8,#
2024,2,27,13.0,#
2024,2,28,15.9,#
2024,2,29,12.5,#
2024,3,1,7.8,#
2024,3,2,6.8,C
2024,3,3,11.3,#
2024,3,4,16.7,C
2024,3,5,21.1,C
2024,3,6,17.7,C
2024,3,7,14.1,C
2024,3,8,12.8,C
2024,3,9,13.0,C
2024,3,10,13.7,C
2024,3,11,14.6,C
2024,3,12,11.9,C
2024,3,13,15.2,C
2024,3,14,17.4,C
2024,3,15,18.3,C
2024,3,16,18.8,C
2024,3,17,19.1,C
2024,3,18,18.8,C
2024,3,19,17.6,C
2024,3,20,14.7,C
2024,3,21,15.6,C
2024,3,22,19.1,C
2024,3,23,20.9,C
2024,3,24,22.1,C
2024,3,25,21.8,C
2024,3,26,21.2,C
2024,3,27,19.6,C
2024,3,28,21.0,C
2024,3,29,21.3,C
2024,3,30,22.7,C
2024,3,31,23.9,C
"*** 沒有數據/unavailable"
"# 數據不完整/data incomplete"
"C 數據完整/data Complete"
